Find Starlink 32921

NORAD ID: 62920 Int'l Des: 2025-027 Owner: SPXS Country: US Constellation: starlink operational
LEOCIRCULAR

現在のビュー

3D地球を読み込み中...

About Starlink 32921

Starlink 32921 (NORAD 62920) is a starlink constellation satellite (v2 mini) launched Feb 8, 2025 by SPXS of US. It operates in LEO, CIRCULAR orbit with a mass of 730.00 kg.

次回通過

Passes for default location (London). Set your location on the main map for personalized predictions.

高度履歴

Loading altitude history...

軌道要素

1 62920U 25027P 26263.28703305 .00041023 00000-0 13299-2 0 9998
2 62920 43.0012 109.0107 0005489 251.8195 108.2060 15.31305053 91313
Epoch: Sep 20, 2026 • Age: 17 hours

現在のステータス

高度 477.1 km
遠地点 / 近地点 N/A
速度 7.63 km/s
衛星直下点 36.39°N, 151.24°E
打ち上げ日 Feb 8, 2025
運用期間 1.6 years
タイプ internet

技術仕様

分類 Payload
質量 730.00 kg
乾燥質量 700.00 kg
長さ 0.30 m
スパン 29.00 m
形状 ? Box + pan
製造者 SPXS
バスタイプ Starlink V2M
フェーズステータス In Orbit
所有者/国 SPXS/US

Most Searched